[[{"header":{"parameterUnit":"m.s-1","parameterCategory":1,"la1":30.2991,"la2":30.254,"lo1":-89.0895,"lo2":-89.0444,"dy":0.0017,"dx":0.0017,"nx":28,"ny":28,"refTime":"2024-07-26T09:00:00:Z","depth":0,"parameterNumber":2,"parameterNumberName":"U-component_of_WINDS"},"data":[0,0,0,0,0,0,0,0,0,0,0,0,0,0,0,0,0,0,0,0,0,0,0,0,0,0,0,0,0,0,0,0,0,0,0,0,0,0,0,0,0,0,0,0,0,0,0,0,0,0,0,0,0,0,0,0,0,0,0.5285,0.5286,0,0.5356,0.5357,0.5357,0.5361,0.536,0.5359,0.5359,0.5433,0.5435,0.5438,0,0,0,0,0,0,0,0,0,0,0,0,0,0.5154,0.5157,0.5285,0.5286,0.5287,0.5356,0.5357,0.5358,0.5361,0.536,0.5359,0.5358,0.5432,0.5435,0.5438,0,0,0,0,0,0,0,0,0,0,0,0,0,0.5217,0.5158,0.5285,0.5297,0.5299,0.5356,0.5357,0.5358,0.5361,0.536,0.5359,0.5358,0.5431,0.5435,0.5439,0.5489,0,0,0.5451,0.5453,0,0,0,0,0,0,0,0,0.5213,0.5222,0.5294,0.5296,0.5298,0.5348,0.5338,0.5402,0.5362,0.5338,0.5359,0.5357,0.5406,0.5412,0.5428,0.5492,0.5496,0.5452,0.5454,0.5456,0.5457,0,0,0,0,0,0,0,0.5209,0.5219,0.5313,0.5295,0.5298,0.5299,0.5307,0.535,0.5378,0.534,0.534,0.5348,0.5407,0.5424,0.543,0.5497,0.5452,0.5455,0.5458,0.5459,0.5604,0.5606,0,0,0,0,0,0,0.5202,0.5215,0.5311,0.5315,0.5252,0.5302,0.5311,0.5334,0.5377,0.5383,0.5349,0.5348,0.5417,0.5425,0.5432,0.5493,0.5456,0.546,0.5462,0.5603,0.5605,0.5606,0,0,0,0,0,0,0.5199,0.5211,0.5308,0.5265,0.5278,0.5306,0.5332,0.5336,0.5353,0.5385,0.539,0.5362,0.5417,0.5426,0.5474,0.5496,0.5462,0.5465,0.5601,0.5603,0.5605,0.5615,0,0,0,0,0,0,0.5195,0.521,0.5229,0.5266,0.528,0.5349,0.5333,0.5338,0.536,0.5359,0.5398,0.5403,0.5417,0.5468,0.5478,0.5501,0.5469,0.56,0.5602,0.5605,0.5613,0.5617,0.5621,0,0,0,0,0,0.5191,0.523,0.523,0.5241,0.5305,0.535,0.5358,0.5373,0.5361,0.5381,0.5401,0.5402,0.5491,0.5473,0.5485,0.5508,0.5598,0.5601,0.5604,0.5611,0.5616,0.5621,0,0,0,0,0,0,0.5196,0.5235,0.5235,0.5287,0.5315,0.5351,0.5376,0.5378,0.5411,0.5409,0.5426,0.5434,0.5481,0.55,0.5478,0.5558,0.5544,0.5549,0.5545,0.555,0.5554,0.5548,0.5472,0,0,0,0,0,0.5203,0.5236,0.5268,0.5311,0.5325,0.5348,0.5368,0.5377,0.5407,0.5419,0.5443,0.5472,0.5507,0.5529,0.5563,0.5615,0.5624,0.5637,0.5641,0.5644,0.5649,0.5677,0.5683,0.5616,0.5616,0.5616,0,0,0.5218,0.5243,0.5263,0.5312,0.5335,0.5369,0.5358,0.5395,0.542,0.5425,0.5471,0.5489,0.5523,0.5573,0.5596,0.559,0.5669,0.5648,0.5651,0.5654,0.5681,0.5687,0.5693,0.5618,0.5618,0.5618,0,0,0.5262,0.5285,0.5322,0.5345,0.5379,0.5394,0.5402,0.5437,0.5449,0.5496,0.5499,0.553,0.559,0.5613,0.5633,0.5685,0.5686,0.5695,0.5716,0.5743,0.5748,0.5753,0.5771,0.5777,0.57,0.57,0.57,0,0.5277,0.5328,0.5341,0.5378,0.5399,0.5403,0.5441,0.5462,0.5506,0.5521,0.5512,0.5586,0.561,0.5665,0.5677,0.5693,0.5704,0.5691,0.5746,0.5751,0.5756,0.5773,0.578,0.5701,0.5701,0.5701,0.5701,0,0.5343,0.5379,0.5405,0.5445,0.547,0.5507,0.5526,0.5548,0.5554,0.557,0.5617,0.5645,0.5683,0.5697,0.5704,0.5753,0.5748,0.5743,0.5728,0.5763,0.5779,0.5786,0.5702,0.5702,0.5701,0.5701,0,0,0.5394,0.544,0.545,0.5468,0.5505,0.5532,0.5569,0.5606,0.5625,0.5655,0.5686,0.5735,0.5731,0.5753,0.5763,0.5786,0.5824,0.5779,0.578,0.5786,0.5879,0.5882,0.5889,0.5825,0.5827,0.5828,0.5876,0,0.5442,0.5507,0.5519,0.5576,0.5608,0.5612,0.5644,0.567,0.5685,0.5715,0.5732,0.5767,0.5758,0.5772,0.5795,0.5815,0.5843,0.5811,0.5854,0.5856,0.5845,0.5898,0.5902,0.5946,0.5882,0.5884,0.5884,0,0.5508,0.5537,0.5596,0.5628,0.5642,0.567,0.5704,0.5733,0.5762,0.5772,0.5796,0.5802,0.584,0.5824,0.5876,0.5854,0.5872,0.5884,0.5887,0.5891,0.5872,0.5904,0.5961,0.5967,0.5895,0.5894,0.5893,0,0.5537,0.5592,0.5635,0.565,0.5688,0.5707,0.5724,0.5753,0.5774,0.5804,0.5817,0.5852,0.5871,0.5897,0.5913,0.5899,0.5964,0.5949,0.5972,0.5972,0.5986,0.5985,0.6046,0.5998,0.5998,0.5998,0.5998,0,0.559,0.5626,0.5648,0.5674,0.5714,0.5728,0.5768,0.5784,0.5809,0.5838,0.5844,0.5871,0.589,0.592,0.5932,0.5973,0.5982,0.5991,0.5993,0.599,0.5989,0.6002,0.5999,0.6,0.5999,0.5999,0.5999,0,0.563,0.5647,0.5693,0.5724,0.5733,0.5761,0.5788,0.5813,0.5828,0.5865,0.5874,0.5898,0.5933,0.5951,0.5996,0.6004,0.605,0.6051,0.604,0.6041,0.6063,0.6061,0.6135,0.6146,0.6091,0.6091,0.6092,0,0.5662,0.569,0.5724,0.5743,0.576,0.5792,0.5812,0.5827,0.5849,0.5883,0.5904,0.594,0.5969,0.6025,0.6047,0.608,0.6082,0.6106,0.6087,0.6083,0.6082,0.608,0.6082,0.6109,0.611,0.611,0.611,0,0.5717,0.5724,0.5753,0.5786,0.581,0.5837,0.5863,0.5878,0.5897,0.5921,0.5957,0.5979,0.6024,0.6059,0.6094,0.6111,0.6114,0.6116,0.6123,0.612,0.6112,0.6116,0.6048,0.6114,0.6114,0.6114,0.6113,0.6113,0.5754,0.5778,0.5805,0.5838,0.5859,0.5882,0.5907,0.5924,0.5954,0.5991,0.5998,0.6035,0.6063,0.611,0.6129,0.6159,0.6154,0.6164,0.6167,0.6169,0.617,0.6107,0.6165,0.6165,0.6165,0.6165,0.6165,0,0.5809,0.5826,0.5856,0.5891,0.5917,0.5916,0.5944,0.5966,0.5998,0.6024,0.6052,0.6092,0.6126,0.6149,0.6183,0.6203,0.6205,0.6211,0.621,0.6214,0.6173,0.6163,0.6209,0.6209,0.6209,0.6209,0.6209,0.6209,0.584,0.588,0.589,0.594,0.5957,0.5994,0.601,0.6032,0.6052,0.6096,0.6124,0.6138,0.6163,0.6199,0.6229,0.6235,0.6247,0.6254,0.626,0.6221,0.6217,0.6212,0.6203,0.6256,0.6256,0.6298,0.6298,0.6299]},{"header":{"parameterUnit":"m.s-1","parameterCategory":1,"la1":30.2991,"la2":30.254,"lo1":-89.0895,"lo2":-89.0444,"dy":0.0017,"dx":0.0017,"nx":28,"ny":28,"refTime":"2024-07-26T09:00:00:Z","depth":0,"parameterNumber":3,"parameterNumberName":"V-component_of_WINDS"},"data":[0,0,0,0,0,0,0,0,0,0,0,0,0,0,0,0,0,0,0,0,0,0,0,0,0,0,0,0,0,0,0,0,0,0,0,0,0,0,0,0,0,0,0,0,0,0,0,0,0,0,0,0,0,0,0,0,0,0,4.3775,4.3776,0,4.3838,4.3839,4.384,4.3781,4.3779,4.3776,4.3774,4.3836,4.3839,4.3843,0,0,0,0,0,0,0,0,0,0,0,0,0,4.36,4.3604,4.3775,4.3776,4.3777,4.3838,4.3839,4.384,4.3782,4.3779,4.3776,4.3773,4.3834,4.3839,4.3843,0,0,0,0,0,0,0,0,0,0,0,0,0,4.3671,4.3605,4.3775,4.3755,4.3754,4.3838,4.3839,4.384,4.3782,4.3779,4.3775,4.3772,4.3833,4.3838,4.3844,4.395,0,0,4.3862,4.3864,0,0,0,0,0,0,0,0,4.3667,4.3677,4.3757,4.3757,4.3756,4.3798,4.38,4.3877,4.3783,4.3771,4.3774,4.377,4.3826,4.3832,4.3851,4.3953,4.3955,4.3862,4.3866,4.3868,4.387,0,0,0,0,0,0,0,4.3662,4.3674,4.38,4.3758,4.3757,4.3742,4.3748,4.3814,4.3817,4.3772,4.3768,4.3777,4.3825,4.3846,4.3852,4.3956,4.3862,4.3867,4.387,4.3873,4.4145,4.4148,0,0,0,0,0,0,4.366,4.3671,4.3798,4.3802,4.3702,4.3748,4.3755,4.3788,4.3817,4.3818,4.3779,4.3774,4.3838,4.3846,4.3854,4.3978,4.3868,4.3873,4.3877,4.4141,4.4146,4.415,0,0,0,0,0,0,4.3656,4.3672,4.3795,4.3735,4.375,4.3754,4.3792,4.3791,4.3812,4.3822,4.3822,4.3801,4.3835,4.3846,4.3926,4.398,4.3876,4.3881,4.4137,4.4143,4.4148,4.4229,0,0,0,0,0,0,4.3652,4.3671,4.3712,4.3737,4.3753,4.3868,4.3796,4.3795,4.3823,4.3816,4.3842,4.3843,4.3833,4.3918,4.3932,4.3986,4.3886,4.4132,4.4139,4.4146,4.4221,4.4236,4.4249,0,0,0,0,0,4.3646,4.3732,4.3715,4.373,4.3805,4.3871,4.388,4.3868,4.3828,4.3868,4.3874,4.3842,4.3972,4.3927,4.3942,4.3998,4.4128,4.4137,4.4145,4.4215,4.4233,4.4249,0,0,0,0,0,0,4.3713,4.3735,4.3716,4.3813,4.3841,4.3861,4.3912,4.3889,4.3928,4.3919,4.3902,4.3908,4.3992,4.4003,4.3953,4.4101,4.4043,4.4055,4.4091,4.4108,4.4122,4.4117,4.389,0,0,0,0,0,4.374,4.3793,4.3808,4.3893,4.3907,4.3908,4.3936,4.3924,4.3952,4.3963,4.3975,4.4001,4.4048,4.4079,4.4122,4.4223,4.4226,4.4269,4.4283,4.4294,4.4305,4.4357,4.4375,4.4178,4.4178,4.4178,0,0,4.3794,4.3813,4.3847,4.3907,4.3927,4.398,4.3918,4.3978,4.4017,4.3971,4.4048,4.4057,4.4086,4.4176,4.4216,4.4188,4.436,4.4305,4.4314,4.4318,4.4367,4.4386,4.4402,4.4184,4.4183,4.4182,0,0,4.3921,4.3942,4.4013,4.4034,4.4066,4.4065,4.4082,4.4106,4.4111,4.4188,4.4154,4.42,4.4281,4.4302,4.4323,4.4457,4.4429,4.4472,4.4545,4.4596,4.4612,4.4625,4.4672,4.4689,4.4482,4.4482,4.4483,0,4.3985,4.4066,4.4053,4.4115,4.4141,4.4103,4.4175,4.4196,4.4239,4.4257,4.4225,4.4325,4.4342,4.4435,4.4468,4.4487,4.4505,4.4468,4.4611,4.4624,4.4637,4.4681,4.4698,4.4487,4.4487,4.4486,4.4486,0,4.4142,4.4198,4.4252,4.4296,4.4328,4.4395,4.439,4.4424,4.441,4.4412,4.4489,4.4508,4.4553,4.4575,4.4561,4.4667,4.4648,4.4614,4.4555,4.4661,4.4702,4.4718,4.4494,4.4493,4.4491,4.449,0,0,4.4314,4.4349,4.4368,4.4387,4.4418,4.4461,4.4525,4.4571,4.4599,4.4631,4.4682,4.4751,4.472,4.4744,4.4732,4.4777,4.488,4.4737,4.4737,4.4762,4.4995,4.502,4.504,4.4861,4.4865,4.4867,4.4992,0,4.4441,4.4553,4.4542,4.4648,4.4699,4.4663,4.4719,4.4743,4.4747,4.4789,4.4792,4.4841,4.4796,4.481,4.4853,4.4858,4.4926,4.4849,4.4908,4.491,4.4901,4.5062,4.5088,4.5206,4.5008,4.5011,4.5013,0,4.4604,4.4641,4.4753,4.4775,4.4796,4.4846,4.4886,4.4928,4.4954,4.4953,4.498,4.496,4.5022,4.4963,4.5048,4.4996,4.5019,4.5025,4.5029,4.5034,4.4968,4.5069,4.5243,4.526,4.5038,4.5036,4.5035,0,4.4716,4.4794,4.487,4.4888,4.4916,4.4952,4.4965,4.4988,4.5015,4.505,4.5067,4.5109,4.5131,4.5163,4.5154,4.5112,4.524,4.5181,4.524,4.524,4.5268,4.5266,4.5447,4.5285,4.5285,4.5284,4.5284,0,4.4859,4.4928,4.4921,4.4968,4.5044,4.503,4.5105,4.5113,4.5134,4.518,4.5152,4.5196,4.5182,4.5225,4.5218,4.5288,4.5299,4.5299,4.5296,4.5301,4.5301,4.5315,4.5306,4.5289,4.5288,4.5287,4.5286,0,4.4997,4.4995,4.5076,4.5096,4.5102,4.5157,4.5174,4.5217,4.5218,4.5277,4.529,4.5292,4.5341,4.5335,4.5389,4.5385,4.5472,4.5459,4.5463,4.546,4.5519,4.5513,4.5715,4.574,4.5563,4.5564,4.5566,0,4.5087,4.514,4.5165,4.5195,4.5211,4.5259,4.5287,4.5275,4.5305,4.5338,4.5377,4.5424,4.546,4.5539,4.5544,4.5585,4.5573,4.5641,4.5579,4.5582,4.5573,4.557,4.5574,4.5653,4.5655,4.5657,4.5658,0,4.5248,4.5244,4.5286,4.5328,4.5363,4.5395,4.5424,4.5449,4.544,4.5475,4.5525,4.5553,4.5609,4.5655,4.5693,4.5705,4.568,4.5678,4.5693,4.5698,4.5698,4.5698,4.5495,4.5673,4.5671,4.567,4.5669,4.5669,4.5364,4.5408,4.5433,4.548,4.5501,4.5529,4.557,4.5576,4.5618,4.5663,4.5653,4.5709,4.5732,4.5781,4.5797,4.584,4.5815,4.5838,4.5844,4.5849,4.5856,4.5692,4.5847,4.5846,4.5846,4.5846,4.5845,0,4.5522,4.5536,4.558,4.5621,4.5658,4.5632,4.5663,4.5695,4.5745,4.5769,4.5806,4.5862,4.5906,4.5915,4.5956,4.5989,4.5978,4.6,4.5997,4.6,4.5876,4.5858,4.6008,4.6008,4.6008,4.6008,4.6008,4.6008,4.5608,4.5681,4.5681,4.5763,4.5776,4.5832,4.5851,4.5875,4.5895,4.596,4.5996,4.6002,4.6019,4.6062,4.61,4.6101,4.6117,4.6144,4.614,4.6025,4.6009,4.5993,4.5976,4.6148,4.6148,4.626,4.6261,4.6262]}]]